Wind_Speed
24 21 17 16 17 15 12 12 4 6 15 21 4 16 15 18 12 20 15 20 24 21 18 18 19 18 16 18 17 16 15 17
15 13 16 16 13 9 10 5 7 6 9 19 15 16 18 19 15 22 15 14 22 24 23 17 15 16 17 19 18 15 16 16
11 10 12 8 11 15 14 13 10 8 11 11 14 21 19 16 12 3 23 19 17 16 23 23 18 16 15 14 19 20 20 19
14 13 15 18 13 14 11 9 12 11 22 14 16 18 19 16 12 7 6 22 24 19 20 24 26 23 19 18 18 15 20 22
11 11 12 12 14 14 9 10 11 10 13 11 16 16 13 16 16 15 15 12 26 30 23 21 25 25 25 26 23 20 18 21
21 17 19 16 13 13 13 9 8 13 13 13 18 19 18 15 14 14 17 15 21 30 26 25 24 29 26 25 26 27 24 20
25 25 29 31 35 33 29 23 17 18 18 16 21 21 19 14 15 12 14 9 20 27 24 24 25 26 29 28 28 29 30 26
22 24 29 30 35 39 39 34 30 29 31 23 26 20 16 14 13 13 12 14 9 27 33 29 30 27 27 29 31 30 32 30
28 20 21 30 38 36 38 37 33 31 28 30 28 29 25 21 20 16 15 15 18 18 28 33 32 33 30 31 30 32 34 34
26 16 19 30 21 14 16 21 29 34 34 32 31 32 31 30 26 23 19 17 15 22 23 31 35 38 35 30 32 31 33 35
22 22 29 20 16 23 14 14 17 24 27 30 32 35 36 35 31 29 26 24 19 20 22 29 36 36 37 36 35 30 33 31
15 22 13 14 18 33 27 23 25 29 29 25 25 29 32 33 35 33 30 30 28 26 26 26 37 40 37 36 37 35 36 33
40 25 18 21 11 6 24 20 24 28 31 32 33 33 38 39 37 34 32 29 31 34 31 26 30 31 39 41 39 36 38 38
27 28 30 16 21 22 20 25 26 25 28 31 34 36 38 41 42 43 38 36 38 39 35 31 31 34 36 35 36 40 39 41
15 20 22 17 24 27 28 24 30 32 33 39 39 33 32 34 41 44 40 44 39 42 38 33 28 34 41 38 31 32 36 39
26 37 33 23 21 21 20 24 30 40 41 39 38 37 39 39 38 36 40 40 44 47 41 38 32 34 35 28 26 25 36 39
46 42 38 33 30 27 30 31 34 36 37 40 41 43 40 40 38 35 37 36 35 43 43 40 38 33 26 27 26 24 30 34
52 40 43 45 41 43 47 46 40 44 45 44 46 46 44 40 34 30 33 28 28 37 38 37 34 19 17 20 22 25 30 27
38 28 35 31 34 38 40 39 35 34 29 28 27 29 25 27 24 21 27 28 26 31 26 23 18 13 17 23 28 26 23 24
Wind_Direction
272 273 265 259 253 256 261 272 259 270 284 298 317 343 359 349 231 204 200 208 197 186 177 185 204 203 197 198 198 200 196 195
266 255 243 243 248 232 220 242 245 229 281 283 330 345 336 333 5 209 206 210 208 207 195 192 181 181 196 200 199 201 204 205
249 253 241 243 228 229 232 234 254 261 257 263 301 327 328 331 354 325 226 220 218 220 196 199 194 198 201 199 207 211 217 214
267 271 253 261 256 238 232 222 221 249 260 274 301 307 313 321 309 312 252 244 232 220 211 206 219 227 229 225 223 217 218 222
278 261 257 243 224 211 229 234 220 236 266 265 276 288 296 301 299 298 284 270 222 224 227 228 212 219 227 235 233 230 226 225
256 273 276 263 230 238 261 249 235 226 250 236 251 266 270 273 287 289 277 313 204 218 229 239 223 220 225 224 235 239 233 232
260 258 261 260 259 262 266 256 247 254 262 236 252 250 255 270 276 289 276 312 196 208 219 226 228 226 222 225 232 239 244 241
261 253 255 265 258 256 257 258 258 256 259 258 271 267 244 250 276 270 262 257 233 209 211 218 225 226 228 228 229 235 240 242
265 266 268 267 257 253 255 253 253 252 261 260 255 265 267 259 267 262 252 243 244 233 223 227 222 222 226 225 228 231 238 245
262 256 244 251 247 244 247 243 242 244 247 246 251 254 261 267 271 267 264 265 264 244 238 235 237 232 229 225 226 228 237 244
236 233 250 250 243 229 220 230 227 232 236 237 241 250 259 263 266 270 267 267 273 267 244 236 230 231 236 232 228 227 236 235
224 231 241 270 239 224 232 249 246 248 250 246 243 239 238 249 259 263 266 270 266 265 265 251 235 232 234 238 238 234 231 232
229 235 252 238 229 216 208 224 235 241 247 252 252 253 251 249 252 256 262 262 262 261 259 267 249 240 243 245 246 244 235 234
228 234 245 238 224 232 225 225 236 241 244 251 257 258 262 260 260 258 259 259 259 263 260 264 258 249 246 243 247 246 240 233
218 229 241 232 210 211 231 243 235 242 253 262 264 264 261 261 260 258 261 256 257 261 255 259 266 264 253 242 238 241 238 235
263 245 243 244 227 230 248 260 250 243 249 255 262 266 269 275 274 269 256 255 258 256 258 255 265 271 239 242 235 242 230 230
254 253 248 236 234 245 256 260 270 269 258 252 258 264 272 281 284 273 264 254 264 259 257 262 262 265 243 242 239 226 224 225
257 258 260 256 249 250 256 258 262 264 263 269 273 275 278 287 294 285 267 259 267 255 249 254 258 254 252 234 202 202 207 206
264 268 257 252 244 243 249 246 247 257 266 270 266 271 276 282 286 286 265 269 280 266 256 245 230 202 196 198 189 191 200 198
Height
3168 3170 3171 3169 3170 3173 3171 3169 3170 3166 3163 3160 3160 3161 3158 3155 3153 3154 3158 3162 3166 3169 3172 3174 3176 3178 3180 3183 3185 3188 3191 3193
3161 3162 3163 3163 3165 3167 3167 3165 3163 3161 3161 3159 3159 3157 3157 3156 3154 3155 3157 3160 3164 3167 3170 3173 3174 3176 3178 3180 3183 3187 3189 3191
3158 3158 3158 3159 3158 3158 3159 3159 3157 3157 3155 3156 3157 3157 3155 3155 3155 3156 3157 3158 3161 3163 3166 3170 3172 3174 3177 3178 3181 3183 3186 3189
3153 3153 3152 3152 3152 3152 3152 3154 3154 3153 3150 3154 3154 3153 3153 3153 3153 3154 3156 3157 3159 3161 3164 3166 3168 3170 3173 3176 3178 3181 3183 3186
3148 3150 3148 3147 3146 3147 3147 3147 3148 3149 3147 3150 3149 3150 3150 3149 3150 3151 3151 3151 3153 3156 3159 3161 3165 3168 3170 3172 3175 3177 3179 3182
3147 3146 3146 3145 3144 3144 3145 3146 3144 3143 3143 3144 3143 3144 3147 3147 3147 3146 3145 3142 3144 3149 3155 3158 3160 3163 3166 3169 3171 3172 3175 3177
3138 3139 3138 3137 3137 3137 3136 3138 3138 3140 3139 3139 3135 3138 3141 3141 3142 3141 3140 3139 3139 3144 3149 3153 3156 3158 3161 3164 3167 3168 3170 3172
3130 3132 3131 3127 3126 3126 3126 3127 3127 3130 3128 3133 3131 3132 3134 3135 3135 3135 3135 3135 3137 3138 3141 3146 3150 3152 3155 3159 3161 3164 3165 3166
3121 3126 3125 3117 3109 3114 3114 3116 3119 3119 3122 3123 3127 3126 3128 3129 3130 3130 3130 3131 3132 3133 3136 3139 3142 3144 3147 3152 3156 3158 3159 3161
3116 3121 3111 3099 3103 3105 3105 3105 3105 3106 3109 3112 3116 3120 3121 3123 3124 3124 3125 3125 3125 3126 3128 3131 3134 3137 3139 3143 3147 3151 3153 3155
3110 3106 3097 3093 3096 3098 3100 3100 3099 3098 3099 3101 3105 3109 3114 3114 3116 3117 3117 3117 3118 3120 3120 3123 3126 3129 3131 3135 3138 3142 3145 3147
3099 3097 3089 3084 3086 3090 3094 3093 3091 3091 3092 3093 3096 3099 3103 3105 3106 3109 3111 3111 3111 3112 3113 3115 3117 3120 3122 3126 3130 3133 3136 3138
3087 3090 3082 3082 3083 3083 3087 3086 3082 3083 3084 3085 3088 3089 3091 3095 3098 3100 3102 3105 3106 3106 3107 3108 3109 3110 3113 3116 3120 3125 3126 3130
3081 3082 3076 3074 3078 3081 3075 3073 3074 3076 3077 3077 3079 3081 3082 3085 3086 3089 3092 3094 3096 3097 3098 3100 3101 3102 3104 3106 3108 3112 3117 3121
3069 3066 3066 3066 3067 3067 3066 3066 3069 3069 3070 3069 3070 3073 3074 3075 3077 3078 3080 3082 3084 3086 3088 3090 3091 3092 3093 3095 3098 3103 3107 3112
3060 3056 3058 3059 3060 3062 3061 3060 3061 3064 3064 3064 3063 3064 3065 3067 3068 3067 3069 3070 3071 3074 3078 3081 3082 3082 3082 3085 3089 3093 3096 3102
3042 3045 3047 3048 3054 3055 3054 3054 3055 3054 3056 3057 3057 3057 3059 3059 3059 3059 3058 3061 3061 3062 3068 3070 3072 3073 3072 3076 3079 3085 3090 3095
3023 3036 3036 3038 3044 3045 3043 3044 3047 3047 3049 3051 3050 3049 3051 3050 3050 3049 3050 3054 3053 3052 3057 3060 3063 3065 3066 3069 3073 3080 3086 3091
3013 3019 3019 3023 3026 3028 3030 3034 3039 3040 3043 3043 3043 3041 3042 3041 3041 3041 3043 3046 3046 3046 3048 3053 3056 3057 3062 3067 3071 3076 3083 3085